TimeMST,TemperatureF,Dew PointF,Humidity,Sea Level PressureIn,VisibilityMPH,Wind Direction,Wind SpeedMPH,Gust SpeedMPH,PrecipitationIn,Events,Conditions,WindDirDegrees,DateUTC
12:53 AM,19.0,10.9,71,30.00,10.0,West,6.9,-,N/A,,Mostly Cloudy,260,2012-11-11 07:53:00
1:53 AM,16.0,10.0,77,30.03,10.0,SW,4.6,-,N/A,,Mostly Cloudy,230,2012-11-11 08:53:00
2:53 AM,17.1,12.0,81,30.06,10.0,Calm,Calm,-,N/A,,Overcast,0,2012-11-11 09:53:00
3:53 AM,15.1,10.9,84,30.09,10.0,Calm,Calm,-,N/A,,Mostly Cloudy,0,2012-11-11 10:53:00
4:53 AM,14.0,8.1,77,30.12,10.0,Calm,Calm,-,N/A,,Mostly Cloudy,0,2012-11-11 11:53:00
5:53 AM,12.9,8.1,81,30.13,10.0,Calm,Calm,-,N/A,,Partly Cloudy,0,2012-11-11 12:53:00
6:53 AM,12.2,8.6,85,29.99,10.0,SSE,4.6,-,N/A,,Partly Cloudy,160,2012-11-11 13:53:00
7:53 AM,14.0,9.0,80,30.19,10.0,Calm,Calm,-,N/A,,Overcast,0,2012-11-11 14:53:00
9:53 AM,18.0,10.9,74,30.23,10.0,Calm,Calm,-,N/A,,Clear,0,2012-11-11 16:53:00
10:53 AM,21.0,12.0,68,30.23,10.0,WSW,12.7,-,N/A,,Clear,250,2012-11-11 17:53:00
11:53 AM,23.0,12.9,65,30.23,10.0,West,16.1,-,N/A,,Clear,270,2012-11-11 18:53:00
12:53 PM,24.1,12.0,60,30.23,10.0,West,16.1,-,N/A,,Partly Cloudy,260,2012-11-11 19:53:00
1:53 PM,24.1,12.9,62,30.25,10.0,West,16.1,20.7,N/A,,Partly Cloudy,260,2012-11-11 20:53:00
2:53 PM,23.0,12.0,63,30.27,10.0,WSW,13.8,-,N/A,,Clear,250,2012-11-11 21:53:00
3:53 PM,21.0,14.0,74,30.32,10.0,West,10.4,-,N/A,,Partly Cloudy,260,2012-11-11 22:53:00
4:53 PM,18.0,12.9,81,30.36,10.0,West,5.8,-,N/A,,Mostly Cloudy,270,2012-11-11 23:53:00
5:53 PM,15.1,9.0,77,30.42,10.0,Calm,Calm,-,N/A,,Scattered Clouds,0,2012-11-12 00:53:00
6:53 PM,19.0,9.0,65,30.45,10.0,West,6.9,-,N/A,,Overcast,260,2012-11-12 01:53:00
8:53 PM,12.0,5.0,73,30.55,10.0,WSW,5.8,-,N/A,,Clear,240,2012-11-12 03:53:00
9:53 PM,10.0,3.0,73,30.58,10.0,Calm,Calm,-,N/A,,Partly Cloudy,0,2012-11-12 04:53:00
10:53 PM,10.0,3.0,73,30.57,10.0,WSW,3.5,-,N/A,,Clear,240,2012-11-12 05:53:00
11:53 PM,10.0,3.9,76,30.58,10.0,SE,3.5,-,N/A,,Clear,130,2012-11-12 06:53:00